Albright, Illinois
Current Conditions -  °F | °C
As of 12:15 AM on Saturday 20 Dec 2014 (Local Time) from KPRG Reporting Station
Overcast Overcast  
Wind Chill: 31°   Ceiling: 2600
Heat Index: 31°   Visibility: 7mi
Dew Point: 28°   Wind: 0mph
Humidity: 90%   Direction: NA
Pressure: 30.29"   Gusts: NA
Location:  39.4361°N, 87.7043°W
Report Text: KPRG 200615Z AUTO 00000KT 7SM OVC026 M01/M02 A3029 RMK AO2 T10081022
Loading
Personal Weather Stations






























Interactive Weather Map New forecast layout! Learn more

10-Day Weather Forecast

Advertisements
Track Severe Weather on mobile